Powrót do katalogu

STARLINK-35586

AktywnyŁącznośćVLEO
NORAD 66159·PAYLOAD·🇺🇸 United States

Wystrzelony Oct 25, 2025 z Cape Canaveral Space Force Station

Loading…

Następne Przeloty (najbliższe 24 godziny)

TLE

ŚwieżeSource: CelesTrak SupGP

Epoka: Sep 15, 2026, 02:49 UTC

1 66159C 25240P   26258.11784722 -.00027797  00000+0 -82110-3 0  2581
2 66159  53.1580 259.2297 0001371  90.8630 245.8297 15.34410296    18

Śledź STARLINK-35586 w czasie rzeczywistym z AllMySat

Download on the App Store